[[{"header":{"parameterUnit":"m.s-1","parameterCategory":1,"la1":30.2991,"la2":30.254,"lo1":-89.0895,"lo2":-89.0444,"dy":0.0017,"dx":0.0017,"nx":28,"ny":28,"refTime":"2025-09-09T03:00:00:Z","depth":0,"parameterNumber":2,"parameterNumberName":"U-component_of_WINDS"},"data":[0,0,0,0,0,0,0,0,0,0,0,0,0,0,0,0,0,0,0,0,0,0,0,0,0,0,0,0,0,0,0,0,0,0,0,0,0,0,0,0,0,0,0,0,0,0,0,0,0,0,0,0,0,0,0,0,0,0,-2.9701,-2.9701,0,-2.9648,-2.9648,-2.9647,-2.9513,-2.951,-2.9507,-2.9505,-2.9454,-2.9455,-2.9456,0,0,0,0,0,0,0,0,0,0,0,0,0,-2.9692,-2.9693,-2.9701,-2.97,-2.97,-2.9648,-2.9648,-2.9647,-2.9514,-2.951,-2.9507,-2.9503,-2.9453,-2.9455,-2.9456,0,0,0,0,0,0,0,0,0,0,0,0,0,-2.9673,-2.9693,-2.9701,-2.9627,-2.962,-2.9648,-2.9648,-2.9647,-2.9514,-2.951,-2.9506,-2.9502,-2.9453,-2.9455,-2.9457,-2.9554,0,0,-2.9463,-2.9463,0,0,0,0,0,0,0,0,-2.9675,-2.9674,-2.9639,-2.9632,-2.9624,-2.9583,-2.9625,-2.9616,-2.9515,-2.9555,-2.9505,-2.95,-2.95,-2.9498,-2.9498,-2.9552,-2.9549,-2.9463,-2.9464,-2.9465,-2.9465,0,0,0,0,0,0,0,-2.9676,-2.9675,-2.968,-2.9638,-2.963,-2.9598,-2.9591,-2.9623,-2.9552,-2.9551,-2.9541,-2.9536,-2.9496,-2.9496,-2.9495,-2.9549,-2.9463,-2.9464,-2.9466,-2.9466,-2.9684,-2.9689,0,0,0,0,0,0,-2.9687,-2.9677,-2.9682,-2.9679,-2.9639,-2.9602,-2.9593,-2.96,-2.9551,-2.954,-2.954,-2.953,-2.9495,-2.9493,-2.9493,-2.9606,-2.9465,-2.9467,-2.9468,-2.968,-2.9685,-2.969,0,0,0,0,0,0,-2.9688,-2.9689,-2.9684,-2.9675,-2.9672,-2.9606,-2.9615,-2.9602,-2.9602,-2.9543,-2.953,-2.9553,-2.9491,-2.949,-2.9541,-2.9603,-2.9467,-2.9469,-2.9674,-2.9681,-2.9688,-2.9833,0,0,0,0,0,0,-2.9688,-2.969,-2.9725,-2.9677,-2.9673,-2.9731,-2.9619,-2.9604,-2.9605,-2.9592,-2.9552,-2.9541,-2.9488,-2.9538,-2.9543,-2.9603,-2.9471,-2.9668,-2.9677,-2.9686,-2.9822,-2.9844,-2.9862,0,0,0,0,0,-2.9688,-2.9767,-2.9727,-2.9728,-2.9715,-2.9735,-2.9733,-2.9669,-2.9611,-2.9646,-2.9609,-2.9543,-2.9595,-2.9545,-2.9548,-2.961,-2.9664,-2.9675,-2.9685,-2.9813,-2.9839,-2.9862,0,0,0,0,0,0,-2.9824,-2.976,-2.9714,-2.978,-2.9764,-2.9712,-2.9754,-2.9698,-2.9699,-2.9686,-2.9608,-2.96,-2.9662,-2.9641,-2.9586,-2.9704,-2.9619,-2.9631,-2.9715,-2.974,-2.976,-2.9764,-2.9472,0,0,0,0,0,-2.9862,-2.9882,-2.9825,-2.9889,-2.9883,-2.9821,-2.9827,-2.9779,-2.976,-2.9752,-2.9718,-2.9704,-2.9717,-2.9727,-2.9736,-2.9818,-2.981,-2.9863,-2.9883,-2.99,-2.9911,-2.9957,-2.9981,-2.9724,-2.9724,-2.9724,0,0,-2.994,-2.9907,-2.9924,-2.9915,-2.9897,-2.9922,-2.9816,-2.9845,-2.9863,-2.9757,-2.9802,-2.9778,-2.9756,-2.9824,-2.9852,-2.9808,-2.9981,-2.9913,-2.9927,-2.9929,-2.997,-2.9995,-3.0017,-2.9732,-2.973,-2.9729,0,0,-3.0094,-3.0071,-3.0123,-3.0107,-3.0081,-3.004,-3.0053,-3.0011,-2.999,-3.0035,-2.9956,-2.9978,-3.0001,-2.999,-2.9988,-3.0143,-3.0083,-3.0148,-3.0253,-3.0299,-3.0319,-3.0337,-3.0395,-3.0416,-3.0159,-3.016,-3.016,0,-3.0195,-3.0227,-3.0157,-3.0192,-3.0192,-3.0097,-3.0151,-3.014,-3.0119,-3.0122,-3.0073,-3.0103,-3.0081,-3.0147,-3.0186,-3.0186,-3.02,-3.0152,-3.0322,-3.0339,-3.0354,-3.0409,-3.043,-3.0168,-3.0167,-3.0166,-3.0165,0,-3.0353,-3.0377,-3.0423,-3.0405,-3.041,-3.0455,-3.0393,-3.0407,-3.0361,-3.0326,-3.0375,-3.0346,-3.0349,-3.0361,-3.0315,-3.0421,-3.0395,-3.0335,-3.0249,-3.0388,-3.0438,-3.0458,-3.018,-3.0177,-3.0174,-3.0172,0,0,-3.059,-3.0535,-3.0553,-3.0546,-3.0512,-3.053,-3.0572,-3.0575,-3.059,-3.0579,-3.0615,-3.0639,-3.0584,-3.0582,-3.0534,-3.0574,-3.0703,-3.0509,-3.0508,-3.0548,-3.0822,-3.0869,-3.0894,-3.0663,-3.0667,-3.067,-3.0825,0,-3.0737,-3.0804,-3.0744,-3.0824,-3.0847,-3.076,-3.0797,-3.0782,-3.0751,-3.0768,-3.0735,-3.0754,-3.0679,-3.0678,-3.0713,-3.068,-3.0757,-3.0668,-3.0697,-3.0699,-3.0707,-3.0919,-3.0967,-3.1115,-3.0844,-3.0847,-3.0849,0,-3.0917,-3.0916,-3.0999,-3.0963,-3.097,-3.1005,-3.1004,-3.1021,-3.1003,-3.0979,-3.0978,-3.0921,-3.0962,-3.0878,-3.0936,-3.0876,-3.0885,-3.0872,-3.0876,-3.0877,-3.0783,-3.0928,-3.116,-3.1184,-3.0879,-3.0877,-3.0874,0,-3.1085,-3.1104,-3.1156,-3.1152,-3.1111,-3.1138,-3.1123,-3.1101,-3.1108,-3.1108,-3.1112,-3.1118,-3.1121,-3.1128,-3.1076,-3.1018,-3.1142,-3.1052,-3.1125,-3.1126,-3.1154,-3.1154,-3.1394,-3.1159,-3.1158,-3.1158,-3.1158,0,-3.1256,-3.1311,-3.1231,-3.1264,-3.1323,-3.1255,-3.1317,-3.1292,-3.1275,-3.1303,-3.1228,-3.1256,-3.1184,-3.1206,-3.1165,-3.1221,-3.1223,-3.1206,-3.1194,-3.1213,-3.1216,-3.1218,-3.1207,-3.1164,-3.1163,-3.1161,-3.116,0,-3.1453,-3.1401,-3.1453,-3.1411,-3.1402,-3.1449,-3.1414,-3.1443,-3.1409,-3.1446,-3.1451,-3.1397,-3.142,-3.1368,-3.1382,-3.1355,-3.1436,-3.1407,-3.1442,-3.1434,-3.151,-3.1505,-3.1761,-3.1793,-3.1537,-3.1539,-3.1542,0,-3.1566,-3.1606,-3.1569,-3.1582,-3.1571,-3.1593,-3.16,-3.1536,-3.1547,-3.1532,-3.1565,-3.1581,-3.159,-3.1631,-3.1594,-3.1606,-3.1579,-3.1668,-3.158,-3.1599,-3.1583,-3.1581,-3.1587,-3.1686,-3.1689,-3.1692,-3.1694,0,-3.1773,-3.1747,-3.1759,-3.1764,-3.1775,-3.1775,-3.1771,-3.1787,-3.1719,-3.1735,-3.1757,-3.1765,-3.1781,-3.1799,-3.1803,-3.1789,-3.1732,-3.1722,-3.174,-3.176,-3.1779,-3.1772,-3.1493,-3.1716,-3.1714,-3.1713,-3.1711,-3.171,-3.1932,-3.1965,-3.1945,-3.1963,-3.1953,-3.1952,-3.1979,-3.1949,-3.1965,-3.1973,-3.1935,-3.1966,-3.1952,-3.1951,-3.1944,-3.1969,-3.1929,-3.1954,-3.1961,-3.1969,-3.1982,-3.1775,-3.197,-3.1969,-3.1968,-3.1968,-3.1967,0,-3.2137,-3.2121,-3.2138,-3.2135,-3.215,-3.2094,-3.2087,-3.2104,-3.2132,-3.2123,-3.2135,-3.2162,-3.218,-3.2147,-3.216,-3.2187,-3.2162,-3.2193,-3.2191,-3.2189,-3.2016,-3.2,-3.2214,-3.2214,-3.2214,-3.2214,-3.2214,-3.2214,-3.2246,-3.2299,-3.2272,-3.2321,-3.2304,-3.2334,-3.2336,-3.2335,-3.2328,-3.2362,-3.2376,-3.2354,-3.2337,-3.2349,-3.2364,-3.2354,-3.2364,-3.2405,-3.2386,-3.2225,-3.2201,-3.2178,-3.2163,-3.2407,-3.2407,-3.2557,-3.2559,-3.256]},{"header":{"parameterUnit":"m.s-1","parameterCategory":1,"la1":30.2991,"la2":30.254,"lo1":-89.0895,"lo2":-89.0444,"dy":0.0017,"dx":0.0017,"nx":28,"ny":28,"refTime":"2025-09-09T03:00:00:Z","depth":0,"parameterNumber":3,"parameterNumberName":"V-component_of_WINDS"},"data":[0,0,0,0,0,0,0,0,0,0,0,0,0,0,0,0,0,0,0,0,0,0,0,0,0,0,0,0,0,0,0,0,0,0,0,0,0,0,0,0,0,0,0,0,0,0,0,0,0,0,0,0,0,0,0,0,0,0,2.0245,2.0244,0,2.0165,2.0164,2.0163,2.0161,2.0162,2.0163,2.0164,2.0068,2.0065,2.0062,0,0,0,0,0,0,0,0,0,0,0,0,0,2.0386,2.0384,2.0245,2.0244,2.0243,2.0165,2.0164,2.0163,2.0161,2.0162,2.0164,2.0165,2.007,2.0065,2.0061,0,0,0,0,0,0,0,0,0,0,0,0,0,2.0317,2.0383,2.0246,2.0234,2.0232,2.0165,2.0164,2.0162,2.0161,2.0162,2.0164,2.0165,2.0071,2.0066,2.0061,1.9997,0,0,2.0044,2.0042,0,0,0,0,0,0,0,0,2.0321,2.0312,2.0236,2.0234,2.0232,2.0175,2.0178,2.0106,2.016,2.0187,2.0164,2.0166,2.0102,2.0094,2.0075,1.9992,1.9988,2.0044,2.0041,2.0039,2.0037,0,0,0,0,0,0,0,2.0326,2.0315,2.0213,2.0235,2.0232,2.0228,2.022,2.0165,2.0136,2.0185,2.0185,2.0176,2.0101,2.008,2.0073,1.9987,2.0044,2.0039,2.0036,2.0034,1.9846,1.9844,0,0,0,0,0,0,2.0335,2.0319,2.0216,2.0211,2.0282,2.0225,2.0215,2.0191,2.0137,2.013,2.0175,2.0176,2.0088,2.0079,2.0069,1.999,2.0039,2.0034,2.0031,1.9848,1.9846,1.9844,0,0,0,0,0,0,2.0338,2.0325,2.0219,2.0265,2.0251,2.0221,2.0193,2.0189,2.0169,2.013,2.0123,2.016,2.0089,2.0077,2.0016,1.9986,2.0031,2.0026,1.985,1.9847,1.9845,1.9831,0,0,0,0,0,0,2.0342,2.0327,2.0305,2.0265,2.0249,2.017,2.0192,2.0186,2.0161,2.0162,2.0114,2.0107,2.009,2.0024,2.001,1.998,2.0022,1.9852,1.9849,1.9846,1.9834,1.9828,1.9823,0,0,0,0,0,2.0347,2.0301,2.0304,2.0291,2.0221,2.0168,2.0159,2.0144,2.0159,2.0134,2.011,2.0108,1.9993,2.0017,2.0002,1.997,1.9854,1.985,1.9846,1.9836,1.9829,1.9823,0,0,0,0,0,0,2.0333,2.0296,2.0298,2.0239,2.0207,2.0168,2.0137,2.0137,2.0097,2.0099,2.0078,2.0067,2.0006,1.9982,2.001,1.9905,1.9925,1.9917,1.9922,1.9915,1.991,1.9915,2.0018,0,0,0,0,0,2.0325,2.0289,2.0256,2.0207,2.0192,2.0167,2.0144,2.0135,2.01,2.0085,2.0056,2.0018,1.9973,1.9943,1.99,1.9832,1.9819,1.9802,1.9797,1.9793,1.9785,1.9745,1.9737,1.983,1.983,1.983,0,0,2.0303,2.0279,2.0256,2.0204,2.0178,2.0138,2.0156,2.0112,2.008,2.0077,2.0018,1.9996,1.9952,1.9887,1.9856,1.9865,1.9757,1.9787,1.9785,1.9779,1.974,1.9731,1.9724,1.9828,1.9828,1.9828,0,0,2.0245,2.0224,2.018,2.0156,2.0119,2.0104,2.0094,2.0055,2.0041,1.9983,1.998,1.994,1.9864,1.9833,1.9807,1.9739,1.9735,1.9725,1.9696,1.9657,1.965,1.9643,1.9616,1.9607,1.9719,1.9719,1.9719,0,2.0222,2.0165,2.0157,2.0114,2.0089,2.009,2.0044,2.0019,1.9968,1.9949,1.9961,1.9866,1.9837,1.9764,1.9748,1.9728,1.9712,1.9729,1.9653,1.9646,1.9639,1.9613,1.9603,1.9718,1.9718,1.9718,1.9718,0,2.0138,2.0098,2.0067,2.0023,1.9995,1.995,1.9932,1.9904,1.9899,1.9882,1.9821,1.9787,1.9736,1.9719,1.9711,1.9644,1.965,1.9658,1.9677,1.9629,1.9604,1.9594,1.9716,1.9716,1.9717,1.9717,0,0,2.0064,2.0019,2.0007,1.9987,1.9948,1.9915,1.987,1.9825,1.9801,1.9766,1.9725,1.9662,1.9669,1.964,1.9629,1.9596,1.9542,1.9607,1.9606,1.9593,1.9462,1.9455,1.9443,1.9541,1.9539,1.9538,1.9465,0,1.9999,1.9923,1.9915,1.9845,1.9806,1.9808,1.9768,1.9737,1.972,1.9682,1.9662,1.9617,1.9631,1.9613,1.9581,1.9555,1.9514,1.9561,1.9497,1.9495,1.9505,1.9431,1.9422,1.9355,1.9456,1.9454,1.9453,0,1.9911,1.988,1.9807,1.9774,1.9757,1.9722,1.968,1.9646,1.9611,1.96,1.957,1.9564,1.9513,1.9537,1.9465,1.9497,1.9471,1.9454,1.9451,1.9441,1.9468,1.9415,1.9334,1.9322,1.9438,1.9439,1.944,0,1.9862,1.98,1.9749,1.9732,1.9693,1.9668,1.9649,1.9616,1.959,1.9553,1.9535,1.949,1.9465,1.9429,1.941,1.943,1.9338,1.9361,1.9323,1.9324,1.93,1.9301,1.921,1.929,1.929,1.929,1.929,0,1.9787,1.9742,1.9726,1.9694,1.9643,1.9633,1.9581,1.9563,1.9534,1.9496,1.9494,1.9457,1.9436,1.9395,1.938,1.932,1.9309,1.9296,1.9292,1.9294,1.9296,1.9274,1.9277,1.9288,1.9288,1.9289,1.9289,0,1.9721,1.9709,1.9653,1.9623,1.9614,1.9577,1.9548,1.9515,1.9501,1.9452,1.9439,1.9414,1.9365,1.9345,1.9284,1.9273,1.9205,1.9205,1.9218,1.9215,1.9178,1.9181,1.9066,1.9049,1.9144,1.9143,1.9143,0,1.9673,1.9639,1.9606,1.9583,1.9565,1.9526,1.9501,1.949,1.9463,1.9422,1.9393,1.9346,1.9308,1.923,1.9203,1.9156,1.9153,1.9117,1.9145,1.9149,1.9148,1.9149,1.9144,1.9109,1.9108,1.9108,1.9107,0,1.9587,1.9584,1.9549,1.9513,1.9484,1.9454,1.9424,1.9404,1.9388,1.9357,1.9311,1.9281,1.9222,1.9174,1.9126,1.9102,1.91,1.9099,1.9087,1.9087,1.9095,1.9087,1.9199,1.91,1.9101,1.9102,1.9102,1.9102,1.9525,1.9495,1.9468,1.9429,1.9408,1.938,1.9348,1.9331,1.9294,1.9247,1.9243,1.9192,1.9157,1.9093,1.9068,1.9026,1.9034,1.9018,1.9013,1.9008,1.9004,1.9106,1.9017,1.9017,1.9017,1.9017,1.9018,0,1.9437,1.9421,1.9386,1.9347,1.9316,1.9324,1.9292,1.9264,1.9221,1.9191,1.9155,1.91,1.9054,1.9026,1.8978,1.8949,1.8947,1.8937,1.8936,1.893,1.9001,1.9014,1.8939,1.894,1.894,1.894,1.894,1.894,1.9387,1.9336,1.9329,1.9266,1.9249,1.9203,1.9183,1.9157,1.9133,1.9074,1.9038,1.9022,1.8991,1.8942,1.8899,1.8891,1.8872,1.8861,1.8853,1.8918,1.8926,1.8933,1.8946,1.8858,1.8858,1.8786,1.8785,1.8784]}]]